AirNav   Everest Fuels
 
 520 users online  

2MU1 St Louis Children's Hospital Heliport
Saint Louis, Missouri, USA

GOING TO SAINT LOUIS?


FAA INFORMATION EFFECTIVE 11 AUGUST 2022

Location

FAA Identifier: 2MU1
Lat/Long: 38-38-16.7000N 090-15-53.6500W
38-38.278333N 090-15.894167W
38.6379722,-90.2649028
(estimated)
Elevation: 610 ft. / 186 m (estimated)
Variation: 01E (1995)
Time zone: UTC -5 (UTC -6 during Standard Time)
Zip code: 63110

Heliport Operations

Heliport use: Private use, MEDICAL USE.
Activation date: 07/1997
Control tower: no
ARTCC: KANSAS CITY CENTER
FSS: SAINT LOUIS FLIGHT SERVICE STATION
Attendance: ON CALL
Wind indicator: yes
Segmented circle: no
Lights: FOR PERIMETER LGTS CALL 417-434-6000.

Heliport Communications

WX ASOS at CPS (7 nm SE): PHONE 618-332-0001
WX ASOS at STL (8 nm NW): PHONE 314-890-4790
WX ASOS at SUS (18 nm W): 134.8 (314-890-7255)
WX AWOS-3 at ALN (18 nm NE): 128.0 (618-259-7231)
WX ASOS at SET (19 nm NW): 118.075 (636-250-4590)

Nearby radio navigation aids

VOR radial/distance  VOR name  Freq  Var
STLr142/16.8ST LOUIS VORTAC117.4001E
TOYr245/17.3TROY VORTAC116.0004E
FTZr091/33.3FORISTELL VORTAC110.8005E

 
NDB name  Hdg/Dist  Freq  Var  ID
ACORE306/12.035000ECP -.-. .--.
EAVES101/13.422701WFZ ..-. --..
CIVIC MEMORIAL214/18.126301WCVM -.-. ...- --

Heliport Services

Runway Information

Helipad H1

Dimensions: 60 x 60 ft. / 18 x 18 m
Surface: concrete
Runway edge lights: PERI
Latitude: 38-38.278333N
Longitude: 090-15.894167W
Elevation: 610.0 ft.
Traffic pattern: leftleft

Heliport Ownership and Management from official FAA records

Ownership: Privately-owned
Owner: SAINT LOUIS CHILDREN'S HOSP.
1 CHILDREN'S PLACE
SAINT LOUIS, MO 63110-1077
Phone 314-454-6000
Manager: FACILITIES MANAGER
1 CHILDREN'S PLACE
SAINT LOUIS, MO 63110-1077
Phone 314-454-6000

Additional Remarks

ROOFTOP.
OWNER DESIRES HELIPORT NOT BE CHARTED.
FOR CD CTC ST LOUIS APCH AT 314-890-1018.

Instrument Procedures

There are no published instrument procedures at 2MU1.

Some nearby airports with instrument procedures:

KCPS - St Louis Downtown Airport (7 nm SE)
KSTL - St Louis Lambert International Airport (8 nm NW)
1H0 - Creve Coeur Airport (13 nm NW)
KSUS - Spirit of St Louis Airport (18 nm W)
KALN - St Louis Regional Airport (18 nm NE)
KSET - St Charles County Smartt Airport (19 nm NW)
 
Loc | Ops | Rwys | IFR | FBO | Links
Com | Nav | Svcs | Stats | Notes
Area around 2MU1 (St Louis Children's Hospital Heliport)
 
Road maps at: MapQuest Bing Google
 
Aerial photo
No photo
 
Sectional chart

 
Airport distance calculator
Flying to St Louis Children's Hospital Heliport? Find the distance to fly.

From to 2MU1

Sunrise and sunset
Times for 15-Aug-2022
 Local
(UTC-5)
 Zulu
(UTC)
Morning civil twilight05:4810:48
Sunrise06:1611:16
Sunset19:5500:55
Evening civil twilight20:2301:23

Current date and time
Zulu (UTC)  15-Aug-2022 08:53:45
Local (UTC-5)  15-Aug-2022 03:53:45
 
METAR
KCPS 
7nm SE 
150825Z AUTO 36005KT 10SM BKN012 21/20 A2996 RMK AO2 T02110200 TSNO
KSTL 
8nm NW 
150821Z 01004KT 10SM BKN010 BKN190 22/19 A2998 RMK AO2 T02170189
KSUS 
18nm W 
150754Z 00000KT 10SM CLR 19/18 A2996 RMK AO2 SLP139 T01890183
KALN 
18nm NE 
150835Z AUTO 00000KT 5SM BR CLR 20/20 A2997 RMK AO2 T01990196
KSET 
19nm NW 
150841Z AUTO 02003KT 10SM BKN011 21/18 A2997 RMK AO2 CIG 008V012 T02110183 $
TAF
KCPS 
7nm SE 
150804Z 1508/1606 35007KT P6SM SCT035 SCT250 FM150900 03005KT P6SM SCT012 SCT250 FM151000 02005KT P6SM BKN012 FM151500 02006KT P6SM BKN025 FM151800 03008KT P6SM BKN040 FM160100 05005KT P6SM SCT035 BKN120
KSTL 
8nm NW 
150757Z 1508/1612 03005KT P6SM SCT015 SCT250 FM150900 03005KT P6SM BKN010 TEMPO 1510/1512 BKN008 FM151500 02006KT P6SM BKN025 FM151800 03008KT P6SM BKN040 FM160100 05005KT P6SM SCT035 BKN120 FM161000 08005KT P6SM VCSH OVC080
KSUS 
18nm W 
150804Z 1508/1606 VRB03KT P6SM SCT030 SCT250 FM150900 03005KT P6SM SCT012 SCT250 FM151000 02005KT P6SM BKN012 FM151500 02006KT P6SM BKN025 FM151800 03008KT P6SM BKN040 FM160100 05005KT P6SM SCT035 BKN120
NOTAMs
Click for the latest NOTAMs
NOTAMs are issued by the DoD/FAA and will open in a separate window not controlled by AirNav.

 

 
 

Would you like to see your business listed on this page?

 If your business provides an interesting product or service to pilots, flight crews, aircraft, or users of the St Louis Children's Hospital Heliport, you should consider listing it here.  To start the listing process, click on the button below
 
Add a business
 

Other Pages about St Louis Children's Hospital Heliport

Update a link
 
Copyright © AirNav, LLC. All rights reserved. Privacy Policy  Contact